CAPE
6 0 0 5 8 7 5 5 3 0 0 0 0 0 0 0 0 0 0 0 0 0 0 0 0 0 0 0 0 0 0 0 0 0 0 0 0 0 0 0 0 0 0 0
5 0 0 12 17 16 14 9 5 6 0 0 0 0 0 0 0 0 0 0 0 0 0 0 0 0 0 0 0 0 0 0 0 0 0 0 0 0 0 0 0 0 0 0
3 0 0 0 0 1 1 0 2 1 0 0 0 0 0 0 0 0 0 0 0 0 0 0 0 0 0 0 0 0 0 0 0 0 0 0 0 0 0 0 0 0 0 0
7 0 1 0 0 0 0 0 0 0 0 0 0 0 0 0 0 0 0 0 0 0 0 0 0 0 0 0 0 0 0 0 0 0 0 0 0 0 0 0 0 0 0 5
0 6 9 6 0 0 0 0 0 2 16 13 0 6 0 0 0 0 0 0 0 0 0 0 0 0 0 0 0 0 0 0 0 0 0 0 0 0 0 0 0 0 0 0
0 0 3 0 0 0 0 13 13 10 7 8 0 0 0 0 0 0 0 0 0 0 0 0 0 0 0 0 0 0 0 0 0 0 2 9 15 23 17 30 30 12 2 0
8 13 10 0 1 8 18 18 11 3 0 0 0 0 0 0 0 0 0 0 0 0 0 0 0 0 0 0 0 0 0 0 0 0 0 0 0 0 6 8 18 33 33 8
0 2 13 1 9 0 0 0 0 0 0 0 0 0 0 0 0 0 0 0 0 0 0 0 0 0 0 0 0 0 0 0 0 0 0 0 0 0 0 0 0 2 22 32
0 0 0 0 1 1 0 10 0 1 0 0 0 0 0 0 0 0 0 0 0 0 0 0 0 0 0 0 0 0 0 0 0 0 0 0 0 0 0 0 0 0 0 0
0 0 0 0 0 12 12 3 43 17 10 0 0 0 0 0 0 0 0 0 0 0 0 0 0 0 0 0 0 0 0 0 0 0 0 0 0 0 0 0 0 0 0 0
0 0 1 11 4 0 1 6 1 0 1 0 0 0 0 0 0 0 0 0 0 0 0 0 0 0 0 0 0 0 0 0 0 0 0 0 0 0 0 0 0 0 0 0
6 5 0 0 5 6 8 1 10 1 0 0 0 0 0 0 0 0 0 0 0 0 0 0 0 0 0 0 0 0 0 0 0 0 0 0 0 0 0 0 0 0 0 0
0 12 4 1 7 1 15 8 5 0 0 0 0 0 0 0 0 0 0 0 0 0 0 0 0 0 0 0 0 0 0 0 0 0 0 0 0 0 0 0 0 0 0 0
5 0 0 0 0 0 0 0 10 23 17 0 0 4 0 0 0 0 0 0 0 0 0 0 0 0 0 0 0 0 0 0 0 0 0 0 0 0 0 0 0 0 0 0
8 1 0 0 0 0 0 0 0 3 0 5 0 0 0 0 0 0 0 0 0 0 0 0 0 0 0 0 0 0 0 0 0 0 0 0 0 0 0 0 0 0 0 0
5 11 0 0 0 0 0 0 0 0 0 2 0 0 0 0 0 0 0 0 0 0 0 0 0 0 0 0 0 0 0 0 0 0 0 0 0 0 0 0 0 0 0 0
56 7 0 0 0 1 5 0 0 0 0 0 0 0 0 0 2 0 0 0 0 0 0 0 0 0 0 0 0 0 0 0 0 0 0 0 0 0 0 0 0 0 0 0
61 49 1 0 1 1 0 0 0 0 0 0 0 0 0 0 0 0 0 0 0 0 0 0 0 0 0 0 0 0 0 0 0 0 0 0 0 0 0 0 0 0 0 0
11 21 0 0 0 0 0 0 0 0 0 0 0 0 0 0 0 0 0 0 0 0 0 0 0 0 0 0 0 0 0 0 0 0 0 0 0 0 0 0 0 0 0 0
13 2 1 0 0 0 0 0 0 0 0 0 0 0 0 0 0 0 0 0 0 0 0 0 0 0 0 0 0 0 0 0 0 0 0 0 0 0 0 0 0 0 0 0
1 9 1 0 0 0 0 0 0 0 0 0 0 0 0 0 0 0 0 0 0 0 0 0 0 0 0 0 0 0 0 0 0 0 0 0 0 0 0 0 0 0 0 0
0 5 0 0 0 0 0 0 0 0 0 0 0 0 0 0 0 0 0 0 0 0 0 0 0 0 0 0 0 0 0 0 0 0 0 0 0 0 0 0 0 0 0 0
1 0 0 0 0 0 0 0 0 0 0 0 0 0 0 0 0 0 0 0 0 0 0 0 0 0 0 0 0 0 0 0 0 0 0 0 0 0 0 0 0 0 0 0
0 0 0 0 0 0 0 0 0 0 0 0 0 0 0 0 0 0 0 0 0 0 0 0 0 0 0 0 0 0 0 0 0 0 0 0 0 0 0 0 0 0 0 0
0 0 0 0 0 0 0 0 0 0 0 0 0 0 0 0 0 0 0 0 0 0 0 0 0 0 0 0 0 0 0 0 0 0 0 0 0 0 0 0 0 0 0 0
0 0 0 0 0 0 0 0 0 0 0 0 0 0 0 0 0 0 0 0 0 0 0 0 0 0 0 0 0 0 0 0 0 0 0 0 0 0 0 0 0 0 0 0
CIN
-0 -0 -0 -3 -6 -6 -10 -6 -7 -0 -0 -0 -0 -0 -0 -0 -0 -0 -0 -0 -0 -0 -0 -0 -0 -0 -0 -0 -0 -0 -0 -0 -0 -0 -0 -0 -0 -0 -0 -0 -0 -0 -0 -0
-1 -0 -0 -5 -15 -3 -6 -4 -8 -21 -8 -0 -0 -0 -0 -0 -0 -0 -0 -0 -0 -0 -0 -0 -0 -0 -0 -0 -0 -0 -0 -0 -0 -0 -0 -0 -0 -0 -0 -0 -0 -0 -0 -0
-0 -0 -0 -0 -1 -7 -14 -5 -0 -10 -0 -0 -0 -0 -0 -0 -0 -0 -0 -0 -0 -0 -0 -0 -0 -0 -0 -0 -0 -0 -0 -0 -0 -0 -0 -0 -0 -0 -0 -0 -0 -0 -0 -0
-2 -3 -8 -0 -0 -0 -0 -0 -0 -0 -0 -0 -0 -0 -0 -0 -0 -0 -0 -0 -0 -0 -0 -0 -0 -0 -0 -0 -0 -0 -0 -0 -0 -0 -0 -0 -0 -0 -0 -0 -0 -0 -0 -341
-0 -3 -1 -8 -0 -0 -0 -0 -0 -3 -2 -1 -0 -0 -0 -0 -0 -0 -0 -0 -0 -0 -0 -0 -0 -0 -0 -0 -0 -0 -0 -0 -0 -0 -0 -0 -0 -0 -0 -0 -0 -0 -0 -0
-0 -0 -13 -0 -0 -0 -0 -3 -4 -3 -0 -2 -0 -2 -0 -0 -0 -0 -0 -0 -0 -0 -0 -0 -0 -0 -0 -0 -0 -0 -0 -0 -0 -0 -380 -297 -257 -223 -198 -211 -186 -174 -60 -19
-1 -0 -16 -0 -1 -6 -4 -1 -3 -15 -0 -0 -0 -0 -0 -0 -0 -0 -0 -0 -0 -0 -0 -0 -0 -0 -0 -0 -0 -0 -0 -0 -0 -0 -0 -0 -0 -2 -199 -136 -150 -117 -121 -157
-1 -0 -0 -2 -2 -0 -0 -0 -3 -0 -0 -0 -0 -0 -0 -0 -0 -0 -0 -0 -0 -0 -0 -0 -0 -0 -0 -0 -0 -0 -0 -0 -0 -0 -0 -0 -0 -0 -0 -0 -0 -17 -98 -54
-0 -0 -36 -0 -2 -0 -0 -0 -0 -0 -0 -0 -0 -0 -0 -0 -0 -0 -0 -0 -0 -0 -0 -0 -0 -0 -0 -0 -0 -0 -0 -0 -0 -0 -0 -0 -0 -0 -0 -0 -0 -0 -0 -0
-0 -0 -0 -0 -0 -15 -5 -6 -1 -7 -5 -7 -0 -0 -0 -0 -0 -0 -0 -0 -0 -0 -0 -0 -0 -0 -0 -0 -0 -0 -0 -0 -0 -0 -0 -0 -0 -0 -0 -0 -0 -0 -0 -0
-0 -0 -0 -1 -0 -0 -0 -1 -5 -0 -4 -1 -0 -0 -0 -0 -0 -0 -0 -0 -0 -0 -0 -0 -0 -0 -0 -0 -0 -0 -0 -0 -0 -0 -0 -0 -0 -0 -0 -0 -0 -0 -0 -0
-13 -14 -0 -0 -13 -16 -2 -0 -8 -15 -0 -0 -0 -0 -0 -0 -0 -0 -0 -0 -0 -0 -0 -0 -0 -0 -0 -0 -0 -0 -0 -0 -0 -0 -0 -0 -0 -0 -0 -0 -0 -0 -0 -0
-1 -5 -2 -3 -4 -3 -1 -5 -2 -0 -0 -0 -0 -0 -0 -0 -0 -0 -0 -0 -0 -0 -0 -0 -0 -0 -0 -0 -0 -0 -0 -0 -0 -0 -0 -0 -0 -0 -0 -0 -0 -0 -0 -0
-11 -0 -0 -0 -0 -0 -0 -0 -29 -3 -11 -0 -11 -63 -0 -0 -0 -0 -0 -0 -0 -0 -0 -0 -0 -0 -0 -0 -0 -0 -0 -0 -0 -0 -0 -0 -0 -0 -0 -0 -0 -0 -0 -0
-7 -0 -0 -0 -0 -0 -0 -0 -0 -5 -0 -2 -0 -0 -0 -0 -0 -0 -0 -0 -0 -0 -0 -0 -0 -0 -0 -0 -0 -0 -0 -0 -0 -0 -0 -0 -0 -0 -0 -0 -0 -0 -0 -0
-16 -7 -0 -0 -0 -0 -0 -0 -0 -0 -0 -14 -0 -0 -0 -0 -0 -0 -0 -0 -0 -0 -0 -0 -0 -0 -0 -0 -0 -0 -0 -0 -0 -0 -0 -0 -0 -0 -0 -0 -0 -0 -0 -0
-9 -15 -11 -0 -0 -1 -2 -0 -0 -0 -0 -0 -0 -0 -0 -0 -0 -0 -0 -0 -0 -0 -0 -0 -0 -0 -0 -0 -0 -0 -0 -0 -0 -0 -0 -0 -0 -0 -0 -0 -0 -0 -0 -0
-14 -2 -10 -0 -0 -3 -0 -0 -0 -0 -0 -0 -0 -0 -0 -0 -0 -0 -0 -0 -0 -0 -0 -0 -0 -0 -0 -0 -0 -0 -0 -0 -0 -0 -0 -0 -0 -0 -0 -0 -0 -0 -0 -0
-34 -14 -5 -0 -0 -0 -0 -0 -0 -0 -0 -0 -0 -0 -0 -0 -0 -0 -0 -0 -0 -0 -0 -0 -0 -0 -0 -0 -0 -0 -0 -0 -0 -0 -0 -0 -0 -0 -0 -0 -0 -0 -0 -0
-18 -19 -12 -0 -0 -0 -0 -0 -0 -0 -0 -0 -0 -0 -0 -0 -0 -0 -0 -0 -0 -0 -0 -0 -0 -0 -0 -0 -0 -0 -0 -0 -0 -0 -0 -0 -0 -0 -0 -0 -0 -0 -0 -0
-3 -16 -2 -0 -0 -0 -0 -0 -0 -0 -0 -0 -0 -0 -0 -0 -0 -0 -0 -0 -0 -0 -0 -0 -0 -0 -0 -0 -0 -0 -0 -0 -0 -0 -0 -0 -0 -0 -0 -0 -0 -0 -0 -0
-2 -33 -7 -0 -0 -0 -0 -0 -0 -0 -0 -0 -0 -0 -0 -0 -0 -0 -0 -0 -0 -0 -0 -0 -0 -0 -0 -0 -0 -0 -0 -0 -0 -0 -0 -0 -0 -0 -0 -0 -0 -0 -0 -0
-4 -0 -0 -0 -0 -0 -0 -0 -0 -0 -0 -0 -0 -0 -0 -0 -0 -0 -0 -0 -0 -0 -0 -0 -0 -0 -0 -0 -0 -0 -0 -0 -0 -0 -0 -0 -0 -0 -0 -0 -0 -0 -0 -0
-0 -0 -0 -0 -0 -0 -0 -0 -0 -0 -0 -0 -0 -0 -0 -0 -0 -0 -0 -0 -0 -0 -0 -0 -0 -0 -0 -0 -0 -0 -0 -0 -0 -0 -0 -0 -0 -0 -0 -0 -0 -0 -0 -0
-0 -0 -0 -0 -0 -0 -0 -0 -0 -0 -0 -0 -0 -0 -0 -0 -0 -0 -0 -0 -0 -0 -0 -0 -0 -0 -0 -0 -0 -0 -0 -0 -0 -0 -0 -0 -0 -0 -0 -0 -0 -0 -0 -0
-0 -0 -0 -0 -0 -0 -0 -0 -0 -0 -0 -0 -0 -0 -0 -0 -0 -0 -0 -0 -0 -0 -0 -0 -0 -0 -0 -0 -0 -0 -0 -0 -0 -0 -0 -0 -0 -0 -0 -0 -0 -0 -0 -0
Wind_Speed
29 35 40 34 33 35 35 38 40 35 32 37 41 48 46 41 42 44 44 46 47 44 40 37 35 31 31 28 25 23 22 22 21 22 21 22 21 22 21 20 21 20 21 20
34 46 37 31 30 34 36 42 44 37 33 37 45 58 48 42 44 44 46 46 44 42 40 36 33 33 31 31 28 26 25 25 23 24 25 26 24 24 24 23 22 22 22 22
38 33 31 33 36 39 39 42 40 41 36 38 45 66 53 50 47 43 38 39 39 39 41 41 37 34 31 30 28 29 25 24 24 24 26 27 28 29 27 25 26 24 24 23
39 39 31 33 38 35 45 35 39 42 43 52 36 72 56 47 46 42 42 40 42 46 43 40 38 34 31 33 33 31 30 26 25 24 25 28 30 32 30 31 29 27 25 26
38 33 37 36 35 28 39 31 33 36 41 46 49 50 56 36 49 49 44 40 43 40 41 41 36 33 30 30 30 29 30 30 30 28 26 27 29 31 34 34 34 33 30 25
37 28 29 37 31 28 28 31 32 34 37 49 48 41 71 52 47 43 37 34 37 35 30 26 24 21 22 23 23 21 20 24 26 28 28 28 30 33 35 36 37 35 35 34
37 38 31 29 31 28 29 32 42 44 45 53 36 38 55 45 39 41 39 34 26 24 23 21 20 19 19 20 20 20 19 21 22 21 22 26 30 33 37 39 38 38 38 37
42 46 37 30 35 35 34 35 43 52 50 49 36 49 53 42 37 32 30 23 21 18 18 18 18 17 17 18 19 20 21 22 23 23 23 24 25 26 29 31 34 35 37 38
39 42 27 29 29 28 34 40 34 45 45 52 48 47 47 41 41 35 30 21 16 16 15 16 17 18 18 19 20 22 22 23 24 24 24 24 25 27 27 28 29 31 33 35
31 38 32 28 25 30 29 22 32 33 44 48 42 46 45 43 41 32 21 13 11 11 14 16 18 18 19 20 21 22 23 24 25 25 26 26 27 28 29 29 31 32 34 35
30 33 31 25 32 33 32 36 33 35 39 49 56 46 31 31 28 19 9 8 10 12 14 16 18 19 20 21 23 24 25 26 27 28 28 28 29 30 30 32 33 34 35 36
30 30 38 34 26 26 30 33 33 39 38 30 30 33 24 21 17 12 9 9 10 11 14 16 18 20 22 23 24 26 28 28 29 29 30 30 31 33 34 35 36 38 39 39
30 34 38 36 34 31 32 31 31 31 34 43 43 39 24 25 19 16 11 9 11 14 15 16 19 22 24 25 26 29 30 30 31 32 32 33 35 36 37 38 40 40 41 42
20 32 38 44 36 28 34 33 30 31 37 40 40 37 30 24 21 16 13 10 12 14 15 19 22 24 26 26 27 30 32 33 33 34 34 35 38 39 40 42 43 43 44 44
25 35 33 35 30 28 29 29 29 32 36 37 36 37 34 25 21 18 16 13 14 16 18 20 22 23 26 28 26 31 33 35 36 35 35 38 40 40 43 44 45 45 45 46
28 31 30 37 36 34 37 35 32 32 35 37 43 47 29 18 17 17 18 16 17 16 16 19 24 28 28 28 31 33 35 36 37 37 38 40 41 44 45 47 48 48 49 49
30 31 30 39 33 34 43 39 34 33 32 32 39 42 25 20 19 17 15 16 16 17 19 23 26 29 31 32 33 35 36 37 37 38 41 42 44 47 48 49 50 52 53 53
34 34 31 34 27 40 37 29 26 29 32 28 32 32 25 19 17 16 16 15 14 16 20 27 28 30 32 33 33 35 35 37 37 40 42 43 46 49 50 51 52 53 54 55
31 27 32 34 35 36 37 31 25 25 35 23 25 24 18 12 14 21 16 15 15 16 20 23 25 26 28 31 32 34 35 36 39 41 43 45 45 48 50 52 54 54 56 57
35 34 34 29 37 41 41 27 22 20 41 19 17 17 15 14 25 22 14 14 16 18 20 23 25 27 28 30 32 32 34 37 40 42 44 45 47 48 50 52 55 56 57 59
34 33 35 34 35 35 28 20 16 25 34 12 15 16 16 20 23 12 11 14 16 17 20 23 25 27 29 30 31 32 34 37 40 42 43 44 45 47 48 52 53 57 59 60
34 34 35 34 36 44 20 20 24 24 21 14 12 12 12 12 11 10 12 14 16 19 21 23 25 26 27 29 31 32 35 38 39 41 42 45 47 49 51 53 54 55 58 62
33 33 35 34 37 22 20 24 23 19 15 13 10 10 8 8 11 10 12 14 16 18 21 22 23 25 27 30 31 34 37 39 42 43 46 48 48 49 50 53 55 57 57 60
29 27 31 29 29 27 23 23 19 16 13 10 8 7 8 8 9 11 12 14 16 18 20 22 24 26 28 31 32 35 38 41 43 45 46 47 49 51 50 51 52 55 57 58
26 23 27 33 30 25 26 22 17 15 12 11 11 11 9 9 11 12 13 14 16 19 21 22 24 26 29 32 34 37 39 41 43 44 45 47 47 49 50 49 50 51 50 52
24 25 26 33 26 27 26 16 14 13 13 11 11 12 12 12 13 12 14 16 18 20 22 23 26 28 31 34 35 38 40 41 43 44 44 45 46 47 48 49 48 45 46 48
Wind_Direction
259 261 259 262 265 271 276 277 279 285 290 288 287 287 289 293 294 296 299 300 301 301 304 304 299 294 291 294 293 283 284 283 284 286 285 286 285 288 292 289 289 289 289 288
257 257 262 268 267 269 272 274 277 285 289 290 289 283 289 292 293 295 297 300 302 305 306 306 307 305 291 289 289 289 280 282 280 280 283 286 291 288 290 293 291 288 289 289
255 269 259 260 262 266 270 272 277 281 290 290 291 283 287 290 292 296 299 301 301 303 304 305 306 306 300 294 287 286 285 283 281 280 285 288 290 292 293 294 294 293 291 290
261 261 268 261 261 263 268 276 279 282 285 282 290 282 286 292 293 297 300 301 301 300 302 302 303 304 303 301 293 287 289 288 284 283 282 282 283 284 288 291 295 295 295 293
259 261 257 260 266 263 274 279 279 280 281 285 282 286 289 298 295 300 304 305 303 303 304 301 300 302 305 308 305 296 292 293 290 286 283 284 286 288 290 292 292 293 294 293
260 270 260 263 268 263 278 280 284 284 283 279 282 282 283 291 298 304 310 313 312 314 313 316 315 316 318 320 324 324 320 315 306 295 289 285 287 288 290 292 292 293 294 295
259 260 266 269 267 268 268 275 278 278 277 279 289 281 281 297 305 304 306 312 318 326 328 329 327 324 324 327 331 334 334 330 329 328 318 305 299 297 293 292 294 295 294 295
254 260 257 263 263 268 267 266 272 277 279 284 288 282 287 300 307 308 310 307 313 322 331 338 338 337 336 337 338 335 336 335 332 334 334 333 328 321 314 307 302 301 299 299
257 260 274 267 265 261 271 265 270 279 282 284 284 289 295 301 300 301 307 303 305 315 326 332 333 337 337 339 340 339 340 340 340 340 340 340 338 332 330 328 320 316 312 308
264 265 268 266 271 267 267 279 273 273 279 281 291 292 293 302 303 307 307 308 319 331 325 324 327 333 337 339 341 343 343 341 339 340 342 342 342 337 332 332 330 323 319 317
256 265 272 269 263 263 265 267 273 279 279 283 287 289 305 311 315 316 307 305 308 313 321 323 326 327 332 336 339 339 337 335 335 338 340 339 337 335 335 333 330 325 323 322
250 264 264 265 278 275 268 267 265 271 277 284 298 295 310 310 324 336 314 300 313 320 322 326 328 331 333 334 335 335 334 333 334 337 337 333 332 331 331 329 328 329 326 324
239 257 262 269 273 272 269 265 265 271 278 277 282 286 298 299 304 300 293 291 303 306 319 326 330 330 326 327 329 331 331 332 331 331 330 328 327 327 327 326 325 325 324 321
235 255 253 260 271 270 266 265 265 267 274 276 277 282 282 286 292 288 287 297 304 314 320 322 322 324 324 325 324 327 326 328 327 328 327 326 324 324 324 323 323 322 321 320
245 255 256 266 271 270 273 272 265 265 270 272 277 273 274 282 281 284 280 292 305 310 315 315 319 324 323 321 327 325 325 323 326 327 325 325 324 324 322 323 323 322 322 320
250 263 259 264 266 269 272 273 269 266 270 270 272 273 285 276 277 285 285 287 291 302 314 313 313 310 315 322 323 320 320 325 326 324 325 325 324 321 321 320 320 321 321 320
249 254 261 265 268 270 269 266 269 272 272 269 274 278 284 273 274 275 281 284 290 294 302 303 305 306 307 313 316 315 319 322 323 324 323 324 322 321 321 321 321 320 319 319
250 255 259 265 270 266 275 279 272 269 271 266 278 282 280 270 277 285 292 288 293 298 303 298 307 315 314 318 317 322 320 321 328 324 325 330 325 322 322 323 323 321 319 318
243 249 260 261 262 274 275 273 277 277 279 273 271 280 278 270 279 286 294 300 302 307 309 313 319 324 326 327 329 325 324 326 328 331 330 330 331 327 327 324 324 322 320 319
247 248 252 266 263 267 275 274 284 290 280 277 265 264 260 265 274 280 284 297 304 310 314 316 319 323 326 329 331 331 332 332 332 332 330 330 329 328 326 325 324 322 322 319
239 244 245 256 265 272 278 281 281 277 293 291 274 265 260 270 286 281 289 300 308 312 315 318 320 322 326 329 332 332 332 332 332 332 332 332 332 330 331 329 329 326 323 321
240 245 251 255 259 268 278 274 265 287 301 297 290 283 274 282 292 293 295 301 307 311 316 320 322 324 328 331 332 332 333 334 334 334 334 334 333 333 332 332 331 331 327 323
246 245 252 253 262 286 273 277 279 292 295 295 293 294 276 275 287 293 299 306 311 315 318 322 324 325 327 330 333 333 333 333 333 333 333 333 335 337 337 335 335 334 333 330
253 256 256 260 264 267 273 275 287 291 293 295 295 295 295 287 291 297 302 307 311 316 319 321 323 325 327 331 333 335 334 335 334 334 334 335 335 336 337 338 338 337 337 335
262 253 258 260 269 274 272 274 277 283 286 286 293 293 294 293 296 301 305 310 313 316 319 322 324 326 328 331 333 334 335 335 334 335 335 336 337 337 336 338 339 340 342 341
261 260 252 262 269 271 277 261 268 269 271 276 277 286 295 293 296 303 307 312 315 316 319 321 324 326 328 330 332 333 334 335 334 334 336 337 336 336 337 337 338 343 346 346